Weather History for Budapest / Lorinc, Hungary

Change the Weather History Date:

Thursday, August 14, 2014

  Actual Average Record
Temperature  
Mean Temperature 63 °F -  
Max Temperature 67 °F 76 °F - ()
Min Temperature 58 °F 56 °F - ()
Degree Days  
Heating Degree Days 2    
Growing Degree Days 13 (Base 50)    
Moisture  
Dew Point 59 °F    
Average Humidity 74    
Maximum Humidity 93    
Minimum Humidity 51    
Precipitation  
Precipitation 0.00 in 0.06 in - ()
Sea Level Pressure  
Sea Level Pressure 29.85 in    
Wind  
Wind Speed 7 mph ()    
Max Wind Speed 13 mph    
Max Gust Speed -    
Visibility 13.3 miles    
Events Rain    
T = Trace of Precipitation, MM = Missing Value Source: Averaged Metar Reports

Daily Weather History Graph

Daily Weather History Graph

Search for Another Location

Airport:

Trip Planner

Search our weather history database for the weather conditions in past years. The results will help you decide how hot, cold, wet, or windy it might be!

Date:

Astronomy

Aug. 14, 2014 Rise Set
Actual Time 5:37 AM CEST 7:57 PM CEST
Civil Twilight 5:03 AM CEST 8:31 PM CEST
Nautical Twilight 4:21 AM CEST 9:13 PM CEST
Astronomical Twilight 3:33 AM CEST 10:01 PM CEST
Moon 9:45 PM CEST (8/14) 10:15 AM CEST (8/14)
Length of Visible Light 15h 27m
Length of Day
14h 19m
Waning Gibbous, 81% of the Moon is Illuminated
Aug 14
Waning Gibbous
Aug 17
Last Quarter
Aug 25
New
Sep 2
First Quarter
Sep 9
Full

Hourly Weather History & Observations

Time (CEST) Temp. Dew Point Humidity Pressure Visibility Wind Dir Wind Speed Gust Speed Precip Events Conditions
12:00 AM 79 °F 67 °F 58% 29.67 in 16 mi South 6.7 mph - -   Scattered Clouds
1:00 AM 77 °F 68 °F 66% 29.72 in 16 mi WSW 8.9 mph - -   Partly Cloudy
2:00 AM 75 °F 67 °F 68% 29.75 in 19 mi NW 8.9 mph - -   Partly Cloudy
3:00 AM 71 °F 63 °F 70% 29.78 in 25 mi NW 13.4 mph - -   Partly Cloudy
4:00 AM 68 °F 61 °F 73% 29.81 in 31 mi NNW 11.2 mph - -   Partly Cloudy
5:00 AM 67 °F 60 °F 72% 29.81 in 31 mi NW 8.9 mph - -   Partly Cloudy
7:00 AM 65 °F 55 °F 63% 29.84 in 25 mi NNW 8.9 mph - -   Partly Cloudy
8:00 AM 67 °F 55 °F 57% 29.84 in 28 mi NW 8.9 mph - -   Partly Cloudy
9:00 AM 68 °F 54 °F 51% 29.86 in 28 mi NW 13.4 mph - -   Partly Cloudy
10:00 AM 66 °F 54 °F 56% 29.91 in 16 mi WNW 11.2 mph - -   Partly Cloudy
11:00 AM 64 °F 56 °F 70% 29.92 in 16 mi NNW 8.9 mph - - Rain Light Rain
12:00 PM 64 °F 56 °F 67% 29.88 in 2 mi NNW 8.9 mph - - Rain Light Rain
1:00 PM 64 °F 55 °F 65% 29.89 in 12 mi NNW 6.7 mph - -   Partly Cloudy
2:00 PM 61 °F 57 °F 83% 29.91 in 6 mi NW 8.9 mph - - Rain Light Rain
3:00 PM 62 °F 58 °F 84% 29.93 in 11 mi WNW 8.9 mph - - Rain Light Rain
4:00 PM 61 °F 57 °F 82% 29.92 in 12 mi NW 6.7 mph - - Rain Light Rain
5:00 PM 61 °F 58 °F 88% 29.88 in 11 mi NE 2.2 mph - - Rain Light Rain
6:00 PM 61 °F 59 °F 91% 29.89 in 16 mi SW 4.5 mph - - Rain Light Rain
7:00 PM 60 °F 58 °F 93% 29.86 in 25 mi West 4.5 mph - - Rain Light Rain
8:00 PM 62 °F 58 °F 84% 29.86 in 22 mi NW 2.2 mph - -   Partly Cloudy
9:00 PM 60 °F 58 °F 90% 29.90 in 19 mi SSW 2.2 mph - -   Partly Cloudy
10:00 PM 59 °F 57 °F 89% 29.91 in 16 mi WSW 4.5 mph - -   Partly Cloudy
11:00 PM 58 °F 56 °F 93% 29.91 in 12 mi West 4.5 mph - -   Partly Cloudy